Tracking 25710 objects as of 5-Jul-2022
HD Live streaming from Space Station
objects crossing your sky now

FENGYUN 1C DEB

Track FENGYUN 1C DEB now!
10-day predictions


NORAD ID: 37415
Int'l Code: 1999-025EGH
Perigee: 861.7 km
Apogee: 1,292.3 km
Inclination: 98.9 °
Period: 106.6 minutes
Semi major axis: 7448 km
RCS: 0.0105 m2 (small)
Launch date: May 10, 1999
Source: People's Republic of China (PRC)
Launch site: Taiyaun Space Center, China (TSC)

Note: This is SATELLITE DEBRIS
aabbcc
Your satellite tracking list
Your tracking list is empty




NASA's NSSDC Master Catalog

Two Line Element Set (TLE):
1 37415U 99025EGH 22184.84348961  .00000104  00000-0  16889-3 0  9995
2 37415  98.9158  43.1106 0289044 154.3089 207.2735 13.50650528453333
Source of the keplerian elements: AFSPC